| time (UTC) | temp F | wind direction | speed MPH | gust MPH | rain 1hr in | rain 24hr in | rain mn in | humidity % | barometer mb |
| 20260906214057 | 101 | 90 | 3.0 | 9.0 | 0.00 | 0.00 | 0.00 | 43 | 1009.9 |
| 20260906213017 | 101 | 113 | 3.0 | 8.0 | 0.00 | 0.00 | 0.00 | 43 | 1010.1 |
| 20260906212017 | 101 | 113 | 3.0 | 7.0 | 0.00 | 0.00 | 0.00 | 42 | 1010.2 |
| 20260906211017 | 101 | 158 | 4.0 | 9.0 | 0.00 | 0.00 | 0.00 | 42 | 1010.4 |
| 20260906210017 | 101 | 45 | 3.0 | 7.0 | 0.00 | 0.00 | 0.00 | 43 | 1010.5 |
| 20260906205017 | 101 | 68 | 3.0 | 9.0 | 0.00 | 0.00 | 0.00 | 43 | 1010.5 |
| 20260906204017 | 101 | 90 | 4.0 | 11.0 | 0.00 | 0.00 | 0.00 | 42 | 1010.8 |
| 20260906203017 | 102 | 113 | 4.0 | 10.0 | 0.00 | 0.00 | 0.00 | 43 | 1010.9 |
| 20260906202016 | 101 | 90 | 3.0 | 10.0 | 0.00 | 0.00 | 0.00 | 43 | 1011.0 |
| 20260906201016 | 100 | 45 | 3.0 | 10.0 | 0.00 | 0.00 | 0.00 | 44 | 1011.0 |
| 20260906200017 | 101 | 90 | 3.0 | 9.0 | 0.00 | 0.00 | 0.00 | 44 | 1011.1 |
| 20260906195037 | 100 | 68 | 3.0 | 8.0 | 0.00 | 0.00 | 0.00 | 45 | 1011.1 |
| 20260906194016 | 100 | 90 | 3.0 | 8.0 | 0.00 | 0.00 | 0.00 | 46 | 1011.2 |
| 20260906193017 | 100 | 113 | 4.0 | 12.0 | 0.00 | 0.00 | 0.00 | 45 | 1011.3 |
| 20260906192017 | 99 | 45 | 2.0 | 9.0 | 0.00 | 0.00 | 0.00 | 46 | 1011.3 |
| 20260906191017 | 99 | 113 | 2.0 | 8.0 | 0.00 | 0.00 | 0.00 | 46 | 1011.5 |
| 20260906190037 | 100 | 45 | 3.0 | 12.0 | 0.00 | 0.00 | 0.00 | 46 | 1011.6 |
| 20260906185016 | 100 | 113 | 5.0 | 12.0 | 0.00 | 0.00 | 0.00 | 46 | 1011.7 |
| 20260906184016 | 100 | 113 | 4.0 | 13.0 | 0.00 | 0.00 | 0.00 | 46 | 1011.8 |
| 20260906183036 | 101 | 90 | 3.0 | 9.0 | 0.00 | 0.00 | 0.00 | 46 | 1012.0 |
| 20260906182037 | 100 | 113 | 3.0 | 9.0 | 0.00 | 0.00 | 0.00 | 47 | 1012.2 |
| 20260906181017 | 99 | 90 | 2.0 | 5.0 | 0.00 | 0.00 | 0.00 | 49 | 1012.3 |
| 20260906180037 | 99 | 113 | 3.0 | 8.0 | 0.00 | 0.00 | 0.00 | 50 | 1012.5 |
| 20260906175016 | 98 | 113 | 4.0 | 11.0 | 0.00 | 0.00 | 0.00 | 50 | 1012.7 |
| 20260906174036 | 97 | 113 | 2.0 | 6.0 | 0.00 | 0.00 | 0.00 | 52 | 1012.8 |
| 20260906173530 | 97 | 90 | 2.0 | 3.0 | 0.00 | 0.00 | 0.00 | 52 | 1013.0 |
| 20260906172537 | 97 | 135 | 3.0 | 8.0 | 0.00 | 0.00 | 0.00 | 52 | 1013.0 |
| 20260906171516 | 97 | 45 | 3.0 | 9.0 | 0.00 | 0.00 | 0.00 | 54 | 1012.9 |
| 20260906170516 | 97 | 113 | 3.0 | 7.0 | 0.00 | 0.00 | 0.00 | 53 | 1013.0 |
| 20260906165537 | 96 | 45 | 3.0 | 9.0 | 0.00 | 0.00 | 0.00 | 54 | 1013.1 |
| 20260906164516 | 96 | 113 | 3.0 | 7.0 | 0.00 | 0.00 | 0.00 | 55 | 1013.2 |
| 20260906163516 | 95 | 68 | 3.0 | 8.0 | 0.00 | 0.00 | 0.00 | 56 | 1013.3 |
| 20260906162517 | 96 | 45 | 2.0 | 7.0 | 0.00 | 0.00 | 0.00 | 55 | 1013.3 |
| 20260906161516 | 96 | 135 | 2.0 | 7.0 | 0.00 | 0.00 | 0.00 | 55 | 1013.2 |
| 20260906160517 | 95 | 135 | 3.0 | 6.0 | 0.00 | 0.00 | 0.00 | 56 | 1013.2 |
| 20260906155517 | 95 | 135 | 2.0 | 9.0 | 0.00 | 0.00 | 0.00 | 58 | 1013.4 |
| 20260906154537 | 95 | 113 | 3.0 | 5.0 | 0.00 | 0.00 | 0.00 | 58 | 1013.4 |
| 20260906153516 | 95 | 113 | 2.0 | 8.0 | 0.00 | 0.00 | 0.00 | 60 | 1013.4 |
| 20260906152516 | 93 | 113 | 1.0 | 4.0 | 0.00 | 0.00 | 0.00 | 62 | 1013.2 |
| 20260906151516 | 92 | 158 | 2.0 | 4.0 | 0.00 | 0.00 | 0.00 | 63 | 1013.0 |
| 20260906150516 | 92 | 90 | 1.0 | 3.0 | 0.00 | 0.00 | 0.00 | 63 | 1013.0 |
| 20260906145516 | 91 | 113 | 2.0 | 6.0 | 0.00 | 0.00 | 0.00 | 64 | 1012.8 |
| 20260906144516 | 90 | 113 | 1.0 | 3.0 | 0.00 | 0.00 | 0.00 | 66 | 1012.9 |
| 20260906143516 | 89 | 90 | 1.0 | 3.0 | 0.00 | 0.00 | 0.00 | 69 | 1012.9 |
| 20260906142517 | 88 | 68 | 2.0 | 6.0 | 0.00 | 0.00 | 0.00 | 70 | 1012.8 |
| 20260906141517 | 87 | 68 | 1.0 | 3.0 | 0.00 | 0.00 | 0.00 | 70 | 1012.8 |
| 20260906140517 | 88 | 158 | 1.0 | 4.0 | 0.00 | 0.00 | 0.00 | 71 | 1012.8 |
| 20260906135517 | 87 | 158 | 1.0 | 4.0 | 0.00 | 0.00 | 0.00 | 72 | 1012.8 |
| 20260906134517 | 85 | 158 | 1.0 | 2.0 | 0.00 | 0.00 | 0.00 | 73 | 1012.8 |
| 20260906133516 | 84 | 158 | 1.0 | 4.0 | 0.00 | 0.00 | 0.00 | 77 | 1012.9 |
| 20260906132516 | 82 | 158 | 1.0 | 2.0 | 0.00 | 0.00 | 0.00 | 80 | 1012.9 |
| 20260906131517 | 81 | 0.0 | 2.0 | 0.00 | 0.00 | 0.00 | 83 | 1012.8 | |
| 20260906130537 | 79 | 0.0 | 2.0 | 0.00 | 0.00 | 0.00 | 86 | 1012.7 | |
| 20260906125517 | 78 | 0.0 | 2.0 | 0.00 | 0.00 | 0.00 | 87 | 1012.5 | |
| 20260906124517 | 77 | 0.0 | 0.0 | 0.00 | 0.00 | 0.00 | 87 | 1012.4 | |
| 20260906123536 | 77 | 0.0 | 0.0 | 0.00 | 0.00 | 0.00 | 86 | 1012.4 | |
| 20260906122517 | 77 | 0.0 | 0.0 | 0.00 | 0.00 | 0.00 | 86 | 1012.4 | |
| 20260906121516 | 77 | 0.0 | 0.0 | 0.00 | 0.00 | 0.00 | 87 | 1012.3 | |
| 20260906120517 | 77 | 0.0 | 0.0 | 0.00 | 0.00 | 0.00 | 86 | 1012.2 | |
| 20260906115516 | 77 | 0.0 | 0.0 | 0.00 | 0.00 | 0.00 | 86 | 1011.9 | |
| 20260906114517 | 77 | 0.0 | 0.0 | 0.00 | 0.00 | 0.00 | 86 | 1012.1 | |
| 20260906113517 | 77 | 0.0 | 0.0 | 0.00 | 0.00 | 0.00 | 86 | 1011.9 | |
| 20260906112537 | 77 | 0.0 | 0.0 | 0.00 | 0.00 | 0.00 | 85 | 1011.7 | |
| 20260906111516 | 77 | 0.0 | 0.0 | 0.00 | 0.00 | 0.00 | 84 | 1011.8 | |
| 20260906110536 | 77 | 0.0 | 0.0 | 0.00 | 0.00 | 0.00 | 84 | 1011.7 | |
| 20260906105517 | 78 | 0.0 | 0.0 | 0.00 | 0.00 | 0.00 | 83 | 1011.6 | |
| 20260906104517 | 78 | 0.0 | 0.0 | 0.00 | 0.00 | 0.00 | 82 | 1011.5 | |
| 20260906103517 | 78 | 0.0 | 0.0 | 0.00 | 0.00 | 0.00 | 82 | 1011.5 | |
| 20260906102516 | 79 | 0.0 | 0.0 | 0.00 | 0.00 | 0.00 | 81 | 1011.6 | |
| 20260906101517 | 79 | 0.0 | 0.0 | 0.00 | 0.00 | 0.00 | 81 | 1011.6 | |
| 20260906100517 | 80 | 0.0 | 0.0 | 0.00 | 0.00 | 0.00 | 80 | 1011.5 | |
| 20260906095537 | 80 | 0.0 | 0.0 | 0.00 | 0.00 | 0.00 | 80 | 1011.4 | |
| 20260906094517 | 81 | 0.0 | 0.0 | 0.00 | 0.00 | 0.00 | 79 | 1011.2 | |
| 20260906093516 | 81 | 0.0 | 0.0 | 0.00 | 0.00 | 0.00 | 78 | 1011.2 | |
| 20260906092517 | 81 | 0.0 | 0.0 | 0.00 | 0.00 | 0.00 | 77 | 1011.2 | |
| 20260906091516 | 82 | 0.0 | 0.0 | 0.00 | 0.00 | 0.00 | 77 | 1011.1 | |
| 20260906090517 | 82 | 158 | 1.0 | 2.0 | 0.00 | 0.00 | 0.00 | 76 | 1011.1 |
| 20260906085517 | 82 | 158 | 1.0 | 2.0 | 0.00 | 0.00 | 0.00 | 76 | 1011.0 |
| 20260906084517 | 83 | 158 | 1.0 | 4.0 | 0.00 | 0.00 | 0.00 | 75 | 1011.0 |
| 20260906083516 | 83 | 158 | 2.0 | 5.0 | 0.00 | 0.00 | 0.00 | 75 | 1010.9 |
| 20260906082517 | 83 | 158 | 2.0 | 5.0 | 0.00 | 0.00 | 0.00 | 75 | 1010.9 |
| 20260906081517 | 83 | 180 | 2.0 | 5.0 | 0.00 | 0.00 | 0.00 | 74 | 1010.9 |
| 20260906080517 | 83 | 203 | 1.0 | 5.0 | 0.00 | 0.00 | 0.00 | 74 | 1010.9 |
| 20260906075516 | 83 | 158 | 2.0 | 5.0 | 0.00 | 0.00 | 0.00 | 74 | 1011.0 |
| 20260906074516 | 83 | 158 | 3.0 | 6.0 | 0.00 | 0.00 | 0.00 | 74 | 1011.2 |
| 20260906073517 | 83 | 158 | 3.0 | 6.0 | 0.00 | 0.00 | 0.00 | 74 | 1011.2 |
| 20260906072516 | 83 | 180 | 1.0 | 3.0 | 0.00 | 0.00 | 0.00 | 74 | 1011.4 |
| 20260906071516 | 84 | 180 | 2.0 | 4.0 | 0.00 | 0.00 | 0.00 | 74 | 1011.4 |
| 20260906070517 | 84 | 180 | 1.0 | 2.0 | 0.00 | 0.00 | 0.00 | 73 | 1011.4 |
| 20260906065516 | 84 | 180 | 1.0 | 3.0 | 0.00 | 0.00 | 0.00 | 73 | 1011.4 |
| 20260906064516 | 84 | 203 | 2.0 | 3.0 | 0.00 | 0.00 | 0.00 | 73 | 1011.4 |
| 20260906063517 | 84 | 203 | 1.0 | 3.0 | 0.00 | 0.00 | 0.00 | 73 | 1011.4 |
| 20260906062517 | 84 | 135 | 1.0 | 3.0 | 0.00 | 0.00 | 0.00 | 72 | 1011.4 |
| 20260906061516 | 84 | 135 | 1.0 | 3.0 | 0.00 | 0.00 | 0.00 | 72 | 1011.4 |
| 20260906060517 | 85 | 135 | 1.0 | 2.0 | 0.00 | 0.00 | 0.00 | 71 | 1011.4 |
| 20260906055517 | 85 | 0.0 | 0.0 | 0.00 | 0.00 | 0.00 | 70 | 1011.5 | |
| 20260906054517 | 85 | 135 | 1.0 | 3.0 | 0.00 | 0.00 | 0.00 | 70 | 1011.5 |
| 20260906053537 | 85 | 135 | 1.0 | 3.0 | 0.00 | 0.00 | 0.00 | 69 | 1011.4 |
| 20260906052516 | 86 | 135 | 1.0 | 2.0 | 0.00 | 0.00 | 0.00 | 69 | 1011.5 |
| 20260906051516 | 86 | 0.0 | 2.0 | 0.00 | 0.00 | 0.00 | 68 | 1011.7 | |
| 20260906050516 | 86 | 135 | 2.0 | 4.0 | 0.00 | 0.00 | 0.00 | 68 | 1011.5 |
| 20260906045517 | 86 | 135 | 2.0 | 5.0 | 0.00 | 0.00 | 0.00 | 68 | 1011.5 |
| 20260906044517 | 86 | 135 | 2.0 | 4.0 | 0.00 | 0.00 | 0.00 | 67 | 1011.4 |
| 20260906043517 | 87 | 158 | 2.0 | 6.0 | 0.00 | 0.00 | 0.00 | 67 | 1011.3 |
| 20260906042517 | 87 | 0.0 | 2.0 | 0.00 | 0.00 | 0.00 | 66 | 1011.3 | |
| 20260906041517 | 87 | 158 | 1.0 | 3.0 | 0.00 | 0.00 | 0.00 | 65 | 1011.3 |
| 20260906040517 | 87 | 158 | 1.0 | 5.0 | 0.00 | 0.00 | 0.00 | 64 | 1011.2 |
| 20260906035517 | 88 | 158 | 1.0 | 4.0 | 0.00 | 0.00 | 0.00 | 64 | 1011.2 |
| 20260906034517 | 88 | 158 | 1.0 | 4.0 | 0.00 | 0.00 | 0.00 | 63 | 1011.3 |
| 20260906033517 | 88 | 135 | 2.0 | 5.0 | 0.00 | 0.00 | 0.00 | 62 | 1011.2 |
| 20260906032517 | 89 | 135 | 2.0 | 5.0 | 0.00 | 0.00 | 0.00 | 62 | 1011.3 |
| 20260906031517 | 89 | 135 | 3.0 | 8.0 | 0.00 | 0.00 | 0.00 | 61 | 1011.2 |
| 20260906030517 | 89 | 135 | 3.0 | 9.0 | 0.00 | 0.00 | 0.00 | 61 | 1011.3 |
| 20260906025517 | 89 | 158 | 2.0 | 8.0 | 0.00 | 0.00 | 0.00 | 61 | 1011.4 |
| 20260906024517 | 90 | 158 | 3.0 | 6.0 | 0.00 | 0.00 | 0.00 | 61 | 1011.1 |
| 20260906023517 | 90 | 158 | 3.0 | 5.0 | 0.00 | 0.00 | 0.00 | 60 | 1010.8 |
| 20260906022517 | 90 | 113 | 2.0 | 4.0 | 0.00 | 0.00 | 0.00 | 59 | 1010.6 |
| 20260906021517 | 91 | 113 | 4.0 | 10.0 | 0.00 | 0.00 | 0.00 | 58 | 1010.6 |
| 20260906020517 | 91 | 113 | 5.0 | 12.0 | 0.00 | 0.00 | 0.00 | 57 | 1010.3 |
| 20260906015517 | 92 | 158 | 5.0 | 10.0 | 0.00 | 0.00 | 0.00 | 56 | 1010.2 |
| 20260906014517 | 93 | 135 | 4.0 | 10.0 | 0.00 | 0.00 | 0.00 | 54 | 1010.0 |
| 20260906013517 | 93 | 158 | 4.0 | 13.0 | 0.00 | 0.00 | 0.00 | 52 | 1009.8 |
| 20260906012537 | 94 | 113 | 1.0 | 4.0 | 0.00 | 0.00 | 0.00 | 49 | 1009.5 |
| 20260906011517 | 94 | 113 | 1.0 | 3.0 | 0.00 | 0.00 | 0.00 | 48 | 1009.3 |
| 20260906010517 | 94 | 113 | 2.0 | 4.0 | 0.00 | 0.00 | 0.00 | 48 | 1009.2 |
| 20260906005517 | 95 | 90 | 2.0 | 4.0 | 0.00 | 0.00 | 0.00 | 47 | 1009.2 |
| 20260906004517 | 95 | 90 | 1.0 | 3.0 | 0.00 | 0.00 | 0.00 | 46 | 1009.2 |
| 20260906003537 | 96 | 90 | 1.0 | 4.0 | 0.00 | 0.00 | 0.00 | 46 | 1009.2 |
| 20260906002517 | 96 | 90 | 1.0 | 4.0 | 0.00 | 0.00 | 0.00 | 45 | 1009.2 |
| 20260906001517 | 96 | 90 | 1.0 | 3.0 | 0.00 | 0.00 | 0.00 | 44 | 1009.3 |
| 20260906000517 | 97 | 90 | 2.0 | 8.0 | 0.00 | 0.00 | 0.00 | 44 | 1009.2 |
| 20260905235517 | 97 | 68 | 1.0 | 4.0 | 0.00 | 0.00 | 0.00 | 43 | 1009.1 |
| 20260905234517 | 97 | 113 | 2.0 | 4.0 | 0.00 | 0.00 | 0.00 | 43 | 1009.0 |
| 20260905233517 | 98 | 113 | 2.0 | 4.0 | 0.00 | 0.00 | 0.00 | 43 | 1009.0 |
| 20260905232517 | 98 | 45 | 2.0 | 5.0 | 0.00 | 0.00 | 0.00 | 43 | 1009.1 |
| 20260905231537 | 98 | 113 | 2.0 | 7.0 | 0.00 | 0.00 | 0.00 | 43 | 1009.2 |
| 20260905230537 | 98 | 90 | 2.0 | 7.0 | 0.00 | 0.00 | 0.00 | 42 | 1009.3 |
| 20260905230017 | 98 | 90 | 3.0 | 8.0 | 0.00 | 0.00 | 0.00 | 42 | 1009.2 |
| 20260905225017 | 98 | 113 | 2.0 | 6.0 | 0.00 | 0.00 | 0.00 | 43 | 1009.2 |
| 20260905224017 | 98 | 68 | 1.0 | 5.0 | 0.00 | 0.00 | 0.00 | 43 | 1009.1 |
| 20260905223017 | 98 | 68 | 3.0 | 7.0 | 0.00 | 0.00 | 0.00 | 43 | 1009.2 |
| 20260905222037 | 99 | 68 | 3.0 | 7.0 | 0.00 | 0.00 | 0.00 | 43 | 1009.4 |
| 20260905221017 | 99 | 68 | 2.0 | 6.0 | 0.00 | 0.00 | 0.00 | 43 | 1009.5 |
| 20260905220017 | 99 | 113 | 3.0 | 10.0 | 0.00 | 0.00 | 0.00 | 43 | 1009.5 |
| 20260905215125 | 100 | 0 | 3.0 | 5.0 | 0.00 | 0.00 | 0.00 | 42 | 1009.7 |